Terminal Aerodrome Forecast
Issued by NWS Duluth, MN

Home | Current Version | Previous Version | Text Only | Print | Product List | Glossary On
Versions: 1 2 3 4 5 6 7 8 9 10 11 12 13 14 15 16 17 18 19 20 21 22 23 24 25 26 27 28 29 30 31 32
000
FTUS43 KDLH 250500 AAD
TAFDLH
TAF AMD
KDLH 250505Z 2505/2524 08015KT P6SM -SN BKN014 OVC020
     FM250800 06010KT P6SM OVC023
     FM251800 09007KT P6SM SKC=

USA.gov is the U.S. government's official web portal to all federal, state and local government web resources and services.